Orbital Elements at Epoch 2455414.5 (2010-Aug-06.0) TDB
Reference: JPL 10 (heliocentric ecliptic J2000)
Element | Value | Uncertainty (1-sigma) | Units |
e | .1735899416775329 | 1.52e-06 | |
a | 4.862376225775631 | 1.6528e-05 | au |
q | 4.018316620329017 | 1.1297e-05 | au |
i | 4.720989637504819 | 7.2777e-05 | deg |
node | 87.1882997896256 | 0.0013108 | deg |
peri | 25.99138379333293 | 0.025394 | deg |
M | 300.9383172161361 | 0.018582 | deg |
tp | 2456057.002144775568 (2012-May-09.50214478) | 0.20542 | TDB |
period | 3916.257736266155 10.72 | 0.019968 5.467e-05 | d yr |
n | .09192449124741005 | 4.687e-07 | deg/d |
Q | 5.706435831222246 | 1.9397e-05 | au |
|
| | Orbit Determination Parameters
Additional Information
|